DELTA 1 DEB, 8542

Orbit data source: Space-Track

DELTA 1 DEB, 8542 is space debris in SSO originally from a launch on Sun, 23 Jul 1972 UTC launched from the Air Force Western Test Range (AFWTR). Debris objects in space refer to the collection of defunct objects orbiting the Earth. Examples of debris include non-operational satellites, rocket bodies, and fragments generated from explosions, collisions, or faulty payload assembly.

Loading next visibility...
Identifier
8542, 1972-058GR
Orbit
SSO
Country
Flag of USUS
Related business
Manufacturer
Unknown
Mission
Spacecraft
Bus & Motor
Unknown
Mass
Unknown
Launch date (UTC)
1972-07-23 (53 years ago)
Launch vehicle
Unknown
Launch site
Air Force Western Test Range (AFWTR)
Object type
Payload
Rocket body
Debris
Shape & HBR
Unknown shape, 0.2 m
Radar Cross Section
Small (<0.1 m²)

Expand to show TLE details & history
Last TLE update: 20 hours ago

TLE from 20 hours ago
0 DELTA 1 DEB
1 08542U 72058GR  25293.70706159  .00000897  00000-0  49171-3 0  9996
2 08542  97.9746 203.1441 0352971  87.9737 276.1798 13.86365300673120
Epoch: 2025-10-20T16:58Z
TLE epoch observation values (Epoch: 2025-10-20T16:58:10.121Z)
Latitude
0.00001°
Longitude
-80.80359°
Altitude
925.534 km
Speed
7.399 km/s
True Right ascension
13h 32m 34s
True Declination
0° 00' 00"
Sunlit
Object was in daylight at epoch
Visualization orbit readout
Latitude
Unknown
Longitude
Unknown
Altitude
Unknown
Speed
Unknown
Apparent Right ascension
Unknown
Apparent Declination
Unknown
Sunlit
N/A
Visualization observer readout
Local Sidereal Time
08:04:45
Azimuth
Unknown
Elevation
Unknown
Doppler factor
Unknown
Orbital elements
Apogee altitude
1,196.82 km
Perigee altitude
680.303 km
Semi-major axis
7,316.698 km
Eccentricity
0.0353
Inclination
97.9746°
RAAN
203.1441°
Arg. of periapsis
87.9737°
True anomaly
272.14271°
Mean anomaly
276.1798°
Eccentric anomaly
274.16276°
Mean motion
3.46793 °/min
Orbital period
103.81 mins
BSTAR
0.00049171
Loading maneuver chart data...
Computing Atmospheric mass density...

Documentation

Showing up to 5 results
|